{"data":{"norad_id":60104,"epoch":"2026-05-25T02:48:14.913792Z","epoch_age_seconds":55192,"freshness":"FRESH","line1":"1 60104U 24117P   26145.11683928 -.00000254  00000+0  35667-5 0  9995","line2":"2 60104  53.1608  42.3966 0001349  92.0121 268.1034 15.30200077108589","mean_motion":15.30200077,"eccentricity":0.0001349,"inclination_deg":53.1608,"raan_deg":42.3966,"arg_perigee_deg":92.0121,"mean_anomaly_deg":268.1034,"bstar":3.5667e-6,"rev_number":10858,"period_min":94.105340971042,"perigee_km":474.29032234806,"apogee_km":476.13935667436,"semimajor_km":6853.3518395112,"source":"CELESTRAK","updated_at":"2026-05-25T13:38:19.162774Z"}}